星链-36174(STARLINK-36174)

导读

STARLINK-36174是美国SpaceX公司“星链(Starlink)”低轨卫星星座的一员,于2025年12月17日发射入轨。星链项目旨在通过数千颗低轨卫星组网,为全球提供高速低延迟宽带互联网服务。作为后期发射的卫星,STARLINK-36174大概率采用第二代星链技术,具备更强通信能力,将助力星链实现全球覆盖,为偏远地区、特殊场景提供网络连接,同时也进一步壮大了全球规模最大的低轨卫星星座。

基本信息
目录编号:
67166
目录名称:
STARLINK-36174
国际标识:
2025-303D
轨道中心:
EARTH
卫星名称:
星链-36174
卫星全名:
星链-36174(STARLINK-36174)
卫星状态:
在轨 (已飞行178 天)
发射日期:
2025-12-17 UTC
国别 :
美国 (US)
星等 :
--
轨道信息
数据来源 国际轨道数据 AOE轨道数据
星历时间 2026-06-11T13:40:14+0800
2天前
查看轨道信息
2026-06-12T01:00:00+0800
1天前
查看轨道信息
半长轴 6861.225km 6861.245km
偏心率 0.000103 0.000081
轨道倾角 43.000° 42.996°
近地点辐角 267.645° 253.756°
升交点赤经 142.267° 139.603°
平近点角 92.428° 185.343°
近地点 482.381km 482.552km
远地点 483.795km 483.664km
周期 94.268分钟 94.268分钟
每日圈数 15.275671 15.275604
详细信息
固有亮度:
5
最大亮度:
2.5
卫星平台:
Starlink V1.0
覆盖范围:
全球
运营商:
太空探索技术公司
运营商所在国:
美国
制造商(研发单位):
太空探索技术公司
制造商所在国:
美国
使用方式:
暂无
卫星简介
Starlink 计划是 SpaceX 推出的全球卫星互联网项目,通过发射低轨道卫星,为全球尤其是偏远地区提供高速、低延迟的互联网服务。自 2019 年起,Starlink 已部署数千颗卫星,旨在缩小全球数字鸿沟,推动互联网普及。该项目还为军事、航空等行业提供通信支持,带来广泛经济效益。
2D轨道图
3D轨道图
轨道高度分析图
轨道倾角分析图
轨道综合分析图
查看轨道综合分析图